Location: Augirein
(42.9320°N, 0.9181°E)
Time: 17:58:53
(UTC+00:00)

AQUA - Pass Details

Date: 20 June 2021
Orbit: 701 x 704 km, 98.2° (Epoch: 02 August)

Event Time Altitude Azimuth Distance (km) Brightness Sun altitude
Rises 01:45:53 0° 15° (NNE) 3,103 8.7 -19.1°
Reaches altitude 10° 01:48:10 10° 17° (NNE) 2,180 7.6 -18.9°
Maximum altitude 01:52:56 73° 102° (ESE) 737 3.9 -18.5°
Enters shadow 01:55:07 32° 181° (S) 1,190 4.5 -18.4°
